Weather observations for the past three days for
Brewster Field Airport
Imperial (Metric)
Date Time (cdt) Wind (mph) Vis. (mi.) Weather Sky Cond. Temperature (ºF) Relative Humidity Wind Chill (°F) Heat Index (°F) Pressure Precipitation (in)
Air Dwpt 6 hour altimeter (in) sea level (mb) 1 hr 3 hr 6 hr
Max. Min.
25 12:15 SW 10 G 17 10.00 Fair CLR 89.8 67.5 48% 93 29.85 0.0
25 11:55 SW 12 G 16 10.00 Fair CLR 89.6 67.3 48% 93 29.85 0.0
25 11:35 S 13 G 20 10.00 Fair CLR 89.2 67.6 49% 93 29.84 0.0
25 11:15 SW 12 G 17 10.00 Fair CLR 87.3 67.5 52% 90 29.84 0.0
25 10:55 S 12 10.00 Fair CLR 86.4 66.9 52% 89 29.85 0.0
25 10:35 SW 12 G 17 10.00 Fair CLR 86 66 51% 88 29.85 0.0
25 10:15 SW 13 10.00 Fair CLR 85.8 65.8 51% 88 29.86 0.0
25 09:55 SW 15 10.00 Fair CLR 84.4 65.3 53% 86 29.86 0.0
25 09:35 SW 12 10.00 Fair CLR 83.7 64.6 53% 85 29.86 0.0
25 09:15 SW 8 10.00 Fair CLR 82 65.5 57% 84 29.86 0.0
25 08:55 S 7 10.00 Fair CLR 79.9 65.1 61% 82 29.86 0.0
25 08:35 S 6 10.00 Fair CLR 78.8 64 61% 81 29.87 0.0
25 08:15 SE 6 10.00 Fair CLR 76.6 62.8 62% 78 29.86 0.0
25 07:55 SE 7 10.00 Fair CLR 75 62.6 65% 77 29.85 0.0
25 07:35 E 6 10.00 Fair CLR 73.4 61.9 67% 29.85 0.0
25 07:15 E 3 10.00 Fair CLR 71.2 61.2 71% 29.84 0.0
25 06:55 Calm 10.00 Fair CLR 68.7 60.4 80.2 66.7 75% 29.84 0.0
25 06:35 E 6 10.00 Fair CLR 68 59.5 74% 29.83 0.0
25 06:15 E 5 10.00 Fair CLR 68.4 59.5 74% 29.84 0.0
25 05:55 NE 6 7.00 Fair CLR 67.6 59.9 76% 29.83 0.0
25 05:35 NE 5 10.00 Fair CLR 67.3 61 80% 29.83 0.0
25 05:15 N 3 10.00 Fair CLR 68.7 60.8 76% 29.82 0.0
25 04:55 Calm 10.00 Fair CLR 70.3 59.7 69% 29.82 0.0
25 04:35 N 6 10.00 Fair CLR 70.5 59.7 69% 29.82 0.0
25 04:15 SW 6 10.00 Fair CLR 73.6 59 60% 29.81 0.0
25 03:55 SW 8 10.00 Fair CLR 74.3 58.6 58% 29.8 0.0
25 03:35 SW 10 G 16 10.00 Fair CLR 75.6 58.3 55% 78 29.79 0.0
25 03:15 SW 9 10.00 Fair CLR 75.4 58.3 55% 78 29.8 0.0
25 02:55 SW 9 10.00 Fair CLR 75.2 58.1 55% 78 29.8 0.0
25 02:35 SW 9 10.00 Fair CLR 74.8 57.2 54% 29.81 0.0
25 02:15 SW 9 10.00 Fair CLR 76.8 56.3 49% 78 29.82 0.0
25 01:55 SW 10 10.00 Fair CLR 77.5 55 46% 79 29.81 0.0
25 01:35 SW 10 10.00 Fair CLR 78.8 54.5 43% 79 29.82 0.0
25 01:15 SW 12 10.00 Fair CLR 79.5 54 41% 80 29.82 0.0
25 00:55 SW 13 10.00 Fair CLR 80.4 53.1 95.9 80.4 39% 80 29.81 0.0
25 00:35 S 12 G 18 10.00 Fair CLR 81.5 52.2 36% 81 29.81 0.0
25 00:15 S 13 10.00 Fair CLR 81.3 52.7 37% 81 29.81 0.0
24 23:55 S 17 G 21 10.00 Fair CLR 82.6 52.7 36% 81 29.81 0.0
24 23:35 SW 14 G 20 10.00 Fair CLR 82.9 53.1 36% 82 29.81 0.0
24 23:15 SW 16 10.00 Fair CLR 83.5 53.6 36% 82 29.8 0.0
24 22:55 SW 13 10.00 Fair CLR 84.2 54 35% 83 29.79 0.0
24 22:35 SW 15 G 24 10.00 Fair CLR 86 53.2 33% 84 29.78 0.0
24 22:15 SW 22 G 28 10.00 Fair and Breezy CLR 88.2 52.3 29% 86 29.76 0.0
24 21:55 SW 21 G 44 10.00 Fair and Breezy CLR 93.6 46.6 20% 90 29.73 0.0
24 21:35 SW 25 G 36 10.00 Fair and Breezy CLR 91.6 48.4 23% 88 29.74 0.0
24 21:15 S 16 G 22 10.00 Fair CLR 87.4 52.2 30% 85 29.75 0.0
24 20:55 W 17 G 24 10.00 Fair CLR 90 50.2 26% 87 29.74 0.0
24 20:35 W 17 G 28 10.00 Fair CLR 90.5 50.4 25% 88 29.74 0.0
24 20:15 W 21 G 28 10.00 Fair and Breezy CLR 90.7 59 35% 90 29.75 0.0
24 19:55 S 8 10.00 Fair CLR 89.6 67.1 48% 93 29.72 0.0
24 19:35 S 7 10.00 Fair CLR 91 66.2 44% 94 29.72 0.0
24 19:15 S 7 10.00 Fair CLR 93.2 66.9 42% 97 29.72 0.0
24 18:55 S 5 10.00 Fair CLR 96.1 63.5 105.6 96.1 34% 98 29.71 0.0
24 18:35 SW 5 10.00 Fair CLR 96.8 62.6 32% 98 29.71 0.0
24 18:15 S 6 10.00 Fair CLR 98.6 61.7 30% 100 29.71 0.0
24 17:55 SW 9 10.00 Fair CLR 100.8 61 27% 102 29.71 0.0
24 17:35 S 12 10.00 Fair CLR 104.5 60.1 23% 106 29.72 0.0
24 17:15 SW 13 G 17 10.00 Fair CLR 104.7 57.9 21% 105 29.73 0.0
24 16:55 SW 13 G 17 10.00 Fair CLR 105.4 56.1 20% 105 29.74 0.0
24 16:35 SW 15 10.00 Fair CLR 105.1 56.7 20% 105 29.74 0.0
24 16:15 SW 15 10.00 Fair CLR 104.5 61.2 24% 106 29.75 0.0
24 15:55 S 15 G 22 10.00 Fair CLR 104.4 61.3 24% 106 29.75 0.0
24 15:35 S 14 G 20 10.00 Fair CLR 103.6 62.4 26% 106 29.76 0.0
24 15:15 S 15 G 24 10.00 Fair CLR 103.6 62.4 26% 106 29.76 0.0
24 14:55 S 18 G 22 10.00 Fair CLR 102.6 64 28% 106 29.76 0.0
24 14:35 S 16 G 24 10.00 Fair CLR 102.6 64.4 29% 106 29.77 0.0
24 14:15 S 16 G 20 10.00 Fair CLR 102.4 64.2 29% 106 29.77 0.0
24 13:55 S 14 10.00 Fair CLR 99.7 66.7 34% 104 29.78 0.0
24 13:35 S 13 10.00 Fair CLR 99.7 65.8 33% 104 29.79 0.0
24 13:15 S 13 G 18 10.00 Fair CLR 98.6 67.1 36% 103 29.8 0.0
24 12:55 S 13 G 18 10.00 Fair CLR 98.4 67.5 98.4 72 36% 103 29.81 0.0
24 12:35 S 12 10.00 Fair CLR 97 68 39% 102 29.82 0.0
24 12:15 S 13 10.00 Fair CLR 95.2 68.5 42% 100 29.82 0.0
24 11:55 SW 10 10.00 Fair CLR 93.7 67.3 42% 98 29.82 0.0
24 11:35 SW 14 10.00 Fair CLR 92.7 66 42% 96 29.82 0.0
24 11:15 SW 13 10.00 Fair CLR 91.2 65.8 43% 94 29.83 0.0
24 10:55 SW 10 10.00 Fair CLR 90 64.9 44% 92 29.83 0.0
24 10:35 SW 10 10.00 Fair CLR 88.5 65.3 46% 91 29.83 0.0
24 10:15 SW 9 10.00 Fair CLR 88 66.4 49% 91 29.83 0.0
24 09:55 SW 10 10.00 Fair CLR 86.4 64.4 48% 88 29.83 0.0
24 09:35 SW 9 10.00 Fair CLR 84.9 64.6 51% 86 29.83 0.0
24 09:15 SW 13 10.00 Fair CLR 82.8 64.4 54% 84 29.83 0.0
24 08:55 SW 10 10.00 Fair CLR 80.8 64.4 58% 82 29.84 0.0
24 08:35 SW 12 10.00 Fair CLR 79.7 64 59% 81 29.84 0.0
24 08:15 SW 9 10.00 Fair CLR 78.3 64 62% 80 29.84 0.0
24 07:55 S 8 10.00 Fair CLR 76.6 63.7 64% 78 29.84 0.0
24 07:35 S 7 10.00 Fair CLR 74.7 63.3 68% 29.83 0.0
24 07:15 S 7 10.00 Fair CLR 72.7 63 72% 29.83 0.0
24 06:55 S 8 10.00 Fair CLR 71.6 62.2 76.6 70.7 72% 29.83 0.0
24 06:35 SW 7 10.00 Fair CLR 71.1 61.9 73% 29.83 0.0
24 06:15 SW 7 10.00 Fair CLR 71.1 61.7 72% 29.83 0.0
24 05:55 S 8 10.00 Fair CLR 71.2 61.7 72% 29.83 0.0
24 05:35 S 8 10.00 Fair CLR 70.7 61.5 73% 29.83 0.0
24 05:15 S 8 10.00 Fair CLR 71.1 61.3 72% 29.83 0.0
24 04:55 SW 8 10.00 Fair CLR 71.6 61.2 70% 29.83 0.0
24 04:35 SW 10 10.00 Fair CLR 71.6 61.2 70% 29.84 0.0
24 04:15 SW 9 10.00 Fair CLR 72.7 61 67% 29.84 0.0
24 03:55 SW 9 10.00 Fair CLR 72.9 61 66% 29.84 0.0
24 03:35 SW 9 10.00 Fair CLR 73.9 60.8 64% 29.85 0.0
24 03:15 SW 10 10.00 Fair CLR 74.5 60.6 62% 29.85 0.0
24 02:55 SW 12 10.00 Fair CLR 75.2 60.3 60% 77 29.85 0.0
24 02:35 SW 12 10.00 Fair CLR 75.4 59.9 59% 78 29.85 0.0
24 02:15 SW 9 G 16 10.00 Fair CLR 75.2 59.2 58% 78 29.86 0.0
24 01:55 S 12 10.00 Fair CLR 75.2 58.6 57% 78 29.86 0.0
24 01:35 S 12 10.00 Fair CLR 75.7 58.1 54% 78 29.87 0.0
24 01:15 S 13 10.00 Fair CLR 76.3 57.7 53% 78 29.86 0.0
24 00:55 S 13 10.00 Fair CLR 76.6 57.6 95.7 75.2 52% 78 29.87 0.0
24 00:35 S 12 G 18 10.00 Fair CLR 77 57.7 52% 79 29.87 0.0
24 00:15 S 10 10.00 Fair CLR 75.4 58.3 55% 78 29.87 0.0
23 23:55 S 10 10.00 Fair CLR 75.4 58.8 57% 78 29.87 0.0
23 23:35 S 9 10.00 Fair CLR 77.5 58.6 52% 79 29.87 0.0
23 23:15 S 10 10.00 Fair CLR 79 58.3 49% 80 29.87 0.0
23 22:55 S 10 10.00 Fair CLR 80.6 58.1 46% 81 29.87 0.0
23 22:35 S 12 10.00 Fair CLR 81 59 47% 81 29.86 0.0
23 22:15 S 12 10.00 Fair CLR 82.8 59 45% 83 29.86 0.0
23 21:55 S 13 10.00 Fair CLR 83.5 59 44% 83 29.85 0.0
23 21:35 S 12 10.00 Fair CLR 83.3 59.9 45% 83 29.84 0.0
23 21:15 S 12 10.00 Fair CLR 84.4 60.8 45% 85 29.84 0.0
23 20:55 S 12 10.00 Fair CLR 86.2 61.5 44% 86 29.84 0.0
23 20:35 S 12 10.00 Fair CLR 88 63.1 44% 89 29.84 0.0
23 19:55 S 10 10.00 Fair CLR 91.8 63.9 40% 93 29.84 0.0
23 18:55 S 15 10.00 Fair CLR 96.1 64.2 99.3 89.1 35% 98 29.84 0.0
23 18:35 S 13 G 21 10.00 Fair CLR 97.2 64 34% 99 29.84 0.0
23 18:15 S 13 10.00 Fair CLR 97.9 62.4 31% 99 29.84 0.0
23 17:55 S 14 G 18 10.00 Fair CLR 98.6 63.1 31% 101 29.85 0.0
23 17:35 S 13 G 20 10.00 Fair CLR 99.1 61.3 29% 100 29.86 0.0
23 17:15 S 16 G 20 10.00 Fair CLR 99 63 31% 101 29.86 0.0
23 16:55 S 20 G 24 10.00 Fair CLR 98.1 64.9 34% 101 29.87 0.0
23 16:35 S 13 G 20 10.00 Fair CLR 97.7 67.1 37% 102 29.88 0.0
23 16:15 S 15 10.00 Fair CLR 97.2 68.4 39% 103 29.88 0.0
23 15:55 S 16 G 22 10.00 Fair CLR 96.3 68.2 40% 101 29.89 0.0
23 15:35 S 16 G 24 10.00 Fair CLR 95.7 68.4 41% 101 29.9 0.0
23 15:15 S 17 G 25 10.00 Fair CLR 94.8 68.7 43% 100 29.9 0.0
23 14:55 SW 14 G 25 10.00 Fair CLR 94.6 68.9 43% 100 29.91 0.0
23 14:35 S 13 G 24 10.00 Fair CLR 93.9 69.4 45% 100 29.92 0.0
23 14:15 S 15 G 24 10.00 Fair CLR 92.3 69.1 47% 97 29.93 0.0
23 13:55 SW 17 G 22 10.00 Fair CLR 91.4 69.4 49% 97 29.94 0.0
23 13:35 S 15 G 22 10.00 Fair CLR 90.7 69.4 50% 96 29.95 0.0
23 13:15 S 13 G 24 10.00 Fair CLR 89.1 69.6 53% 94 29.96 0.0
23 12:55 S 16 10.00 Fair CLR 88.2 70.5 88.2 64.4 56% 94 29.97 0.0
23 12:35 S 16 G 21 10.00 Fair CLR 87.3 70.3 57% 92 29.97 0.0
23 12:15 S 17 G 23 10.00 Fair CLR 86.7 69.8 57% 91 29.97 0.0
23 11:55 S 18 G 22 10.00 Fair CLR 85.1 69.8 60% 90 29.98 0.0
23 11:35 S 15 G 20 10.00 Fair CLR 83.5 69.3 62% 87 29.99 0.0
23 11:15 S 15 G 21 10.00 Fair CLR 82.4 68.9 64% 86 29.99 0.0
23 10:55 S 17 G 23 10.00 Partly Cloudy SCT022 81.9 68.7 65% 85 30 0.0
23 10:35 S 15 10.00 Fair CLR 80.6 68.2 66% 83 30 0.0
23 10:15 S 13 10.00 Fair CLR 79.9 68 67% 82 30 0.0
23 09:55 S 12 10.00 Fair CLR 78.3 68 71% 80 30 0.0
23 09:35 S 13 10.00 Fair CLR 77.7 67.8 72% 80 30 0.0
23 09:15 S 12 10.00 Fair CLR 76.1 68 76% 77 30 0.0
23 08:55 S 14 10.00 Fair CLR 73.9 67.1 79% 30 0.0
23 08:35 S 10 10.00 Fair CLR 72.5 66.9 83% 30 0.0
23 08:15 S 8 10.00 Fair CLR 70.3 66 86% 30 0.0
23 07:55 S 12 10.00 Fair CLR 69.1 65.7 89% 30 0.0
23 07:35 S 9 10.00 Fair CLR 67.5 65.3 93% 30 0.0
23 07:15 S 7 10.00 Fair CLR 65.5 63.9 95% 30 0.0
23 06:55 S 6 10.00 Fair CLR 63.9 62.2 67.8 60.8 95% 30 0.0
23 06:35 S 6 10.00 Fair CLR 63.5 61.7 94% 30 0.0
23 06:15 S 6 10.00 Fair CLR 62.8 61.7 96% 30 0.0
23 05:55 S 6 10.00 Fair CLR 61 60.1 97% 30 0.0
23 05:35 SE 5 7.00 Fair CLR 60.8 59.9 97% 29.99 0.0
23 05:15 SE 5 7.00 Fair CLR 61.9 61 97% 29.99 0.0
23 04:55 SE 6 5.00 Fog/Mist CLR 61.7 60.8 97% 29.99 0.0
23 04:35 SE 7 4.00 Fog/Mist CLR 61.9 61 97% 29.99 0.0
23 04:15 SE 6 7.00 Fair CLR 63 61.9 96% 29.99 0.0
23 03:55 SE 6 7.00 Fair CLR 62.4 61 95% 30 0.0
23 03:35 SE 5 10.00 Fair CLR 64 62.6 95% 30 0.0
23 03:15 E 6 10.00 Fair CLR 63.3 61.9 95% 30 0.0
23 02:55 E 6 10.00 Fair CLR 62.6 61 94% 30 0.0
23 02:35 E 6 10.00 Fair CLR 63.5 61.5 93% 30 0.0
23 02:15 SE 7 10.00 Fair CLR 63.1 61.7 95% 30 0.0
23 01:55 E 7 10.00 Fair CLR 62.6 60.6 93% 30 0.0
23 01:35 SE 5 10.00 Fair CLR 65.5 63.1 92% 30 0.0
23 01:15 Calm 10.00 Fair CLR 67.1 62.8 86% 30.01 0.0
23 00:55 Calm 10.00 Fair CLR 68.2 63.5 86 67.1 85% 30.01 0.0
23 00:35 Calm 10.00 Fair CLR 68.2 63.5 85% 30 0.0
23 00:15 E 3 10.00 Fair CLR 67.5 63 86% 30 0.0
22 23:55 E 7 10.00 Fair CLR 67.3 63.1 87% 30 0.0
22 23:35 E 7 10.00 Fair CLR 67.1 62.6 86% 29.99 0.0
22 23:15 E 5 10.00 Fair CLR 68.5 63.9 85% 29.99 0.0
22 22:55 NE 5 10.00 Fair CLR 70.5 66.2 86% 30 0.0
22 22:35 Calm 10.00 Fair CLR 72.5 66.2 81% 29.99 0.0
22 22:15 Calm 10.00 Fair CLR 73.8 67.1 80% 29.99 0.0
22 21:55 Calm 10.00 Fair CLR 73.6 68 83% 29.98 0.0
22 21:35 N 3 10.00 Fair CLR 74.5 68.7 82% 29.97 0.0
22 21:15 N 3 10.00 Fair CLR 75.9 68.2 77% 77 29.97 0.0
22 20:55 N 3 10.00 Fair CLR 79 67.1 67% 81 29.96 0.0
22 20:35 N 5 10.00 Fair CLR 81.7 67.3 62% 84 29.96 0.0
22 20:15 N 6 10.00 Fair CLR 83.3 66.2 56% 86 29.96 0.0
22 19:55 N 6 10.00 Fair CLR 83.8 66.2 55% 86 29.96 0.0
22 19:35 N 7 10.00 Fair CLR 83.5 65.5 55% 85 29.96 0.0
22 19:15 N 8 10.00 Fair CLR 84.9 65.5 52% 87 29.95 0.0
22 18:55 N 8 10.00 Fair CLR 85.6 64.4 86.5 82 49% 87 29.95 0.0
22 18:35 N 10 7.00 Fair CLR 85.8 65.5 51% 88 29.95 0.0
22 18:15 N 7 10.00 Fair CLR 84.2 65.7 54% 86 29.94 0.0
22 17:55 N 9 10.00 Fair CLR 83.1 64.9 54% 85 29.95 0.0
22 17:35 NW 10 10.00 Fair CLR 83.5 64.8 53% 85 29.95 0.0
22 17:15 N 10 10.00 Fair CLR 84.4 65.3 53% 86 29.94 0.0
22 16:55 NW 10 10.00 Fair CLR 83.7 65.3 54% 86 29.94 0.0
22 16:35 N 8 G 17 10.00 Fair CLR 83.8 66 55% 86 29.95 0.0
22 16:15 N 10 G 18 10.00 Fair CLR 84.9 64.9 51% 87 29.94 0.0
22 15:55 N 13 G 17 10.00 Fair CLR 85.5 66 52% 88 29.95 0.0
22 15:35 NW 14 G 20 10.00 Partly Cloudy SCT038 85.6 65.7 51% 88 29.94 0.0
22 15:15 N 15 G 21 10.00 Mostly Cloudy BKN036 86 66.4 52% 88 29.94 0.0
22 14:55 N 14 G 23 10.00 Mostly Cloudy BKN036 85.8 67.6 55% 89 29.94 0.0
22 14:35 N 14 G 23 10.00 Partly Cloudy SCT036 85.8 67.6 55% 89 29.94 0.0
22 14:15 N 16 G 25 10.00 Partly Cloudy SCT032 85.8 67.1 54% 89 29.94 0.0
22 13:55 N 21 G 26 10.00 Mostly Cloudy and Breezy BKN030 83.5 67.1 58% 86 29.94 0.0
22 13:35 N 20 G 25 10.00 Partly Cloudy SCT026 83.7 68.2 60% 87 29.94 0.0
22 13:15 N 14 G 21 10.00 Mostly Cloudy BKN026 83.1 68.9 62% 87 29.94 0.0
22 12:55 N 18 G 26 10.00 Partly Cloudy SCT024 81.9 68.2 82 70 63% 85 29.93 0.0
Date Time (cdt) Wind (mph) Vis. (mi.) Weather Sky Cond. Air Dwpt Max. Min. Relative Humidity Wind Chill (°F) Heat Index (°F) altimeter (in) sea level (mb) 1 hr 3 hr 6 hr
6 hour
Temperature (ºF) Pressure Precipitation (in)